TimeCST,TemperatureF,Dew PointF,Humidity,Sea Level PressureIn,VisibilityMPH,Wind Direction,Wind SpeedMPH,Gust SpeedMPH,PrecipitationIn,Events,Conditions,WindDirDegrees,DateUTC
12:53 AM,34.0,25.0,70,30.30,10.0,SW,3.5,-,N/A,,Clear,230,2012-11-14 06:53:00
1:53 AM,34.0,25.0,70,30.29,10.0,SSW,8.1,-,N/A,,Clear,210,2012-11-14 07:53:00
2:53 AM,34.0,25.0,70,30.30,10.0,West,8.1,-,N/A,,Clear,270,2012-11-14 08:53:00
3:53 AM,30.0,21.9,72,30.30,10.0,West,6.9,-,N/A,,Clear,270,2012-11-14 09:53:00
4:53 AM,27.0,19.9,75,30.30,10.0,West,4.6,-,N/A,,Clear,270,2012-11-14 10:53:00
5:53 AM,26.1,19.9,78,30.31,10.0,West,4.6,-,N/A,,Clear,270,2012-11-14 11:53:00
6:53 AM,25.0,19.9,81,30.32,10.0,West,4.6,-,N/A,,Clear,260,2012-11-14 12:53:00
7:53 AM,27.0,21.0,78,30.32,10.0,SW,3.5,-,N/A,,Clear,220,2012-11-14 13:53:00
8:53 AM,30.9,23.0,72,30.33,10.0,WSW,4.6,-,N/A,,Clear,250,2012-11-14 14:53:00
9:53 AM,37.0,26.1,65,30.33,10.0,West,4.6,-,N/A,,Clear,270,2012-11-14 15:53:00
10:53 AM,43.0,25.0,49,30.31,10.0,Calm,Calm,-,N/A,,Clear,0,2012-11-14 16:53:00
11:53 AM,48.0,25.0,41,30.29,10.0,Calm,Calm,-,N/A,,Clear,0,2012-11-14 17:53:00
12:53 PM,52.0,24.1,34,30.25,10.0,SW,4.6,-,N/A,,Clear,230,2012-11-14 18:53:00
1:53 PM,55.0,25.0,31,30.22,10.0,SSW,9.2,-,N/A,,Clear,200,2012-11-14 19:53:00
2:53 PM,55.9,24.1,29,30.20,10.0,South,10.4,-,N/A,,Clear,190,2012-11-14 20:53:00
3:53 PM,54.0,25.0,33,30.19,10.0,South,10.4,-,N/A,,Clear,190,2012-11-14 21:53:00
4:53 PM,48.9,30.0,48,30.19,10.0,SSE,4.6,-,N/A,,Clear,150,2012-11-14 22:53:00
5:53 PM,46.9,28.9,50,30.19,10.0,South,9.2,-,N/A,,Clear,170,2012-11-14 23:53:00
6:53 PM,46.9,28.0,48,30.19,10.0,South,9.2,-,N/A,,Partly Cloudy,180,2012-11-15 00:53:00
7:53 PM,44.1,28.0,53,30.20,10.0,South,10.4,-,N/A,,Clear,180,2012-11-15 01:53:00
8:53 PM,42.1,28.9,60,30.20,10.0,South,10.4,-,N/A,,Clear,170,2012-11-15 02:53:00
9:53 PM,43.0,30.0,60,30.19,10.0,South,11.5,-,N/A,,Scattered Clouds,180,2012-11-15 03:53:00
10:53 PM,43.0,30.0,60,30.18,10.0,South,12.7,-,N/A,,Overcast,190,2012-11-15 04:53:00
11:53 PM,45.0,30.0,56,30.19,10.0,NNE,5.8,-,N/A,,Overcast,20,2012-11-15 05:53:00